World > North America > United States > Wisconsin   City of Sheboygan, WI

Sheboygan, Wisconsin Regional Weather

Lat: 43.75N, Lon: 87.72W
Wx Zone: WIZ052
Feedback

Sheboygan, WI Regional Weather

Expires:202004032100;;522340
ASUS43 KGRB 032000
RWRGRB

NORTH-CENTRAL AND NORTHEAST WISCONSIN REGIONAL WEATHER ROUNDUP
NATIONAL WEATHER SERVICE GREEN BAY WI
300 PM CDT FRI APR 03 2020


WIZ022-050-052-032100-
EAST CENTRAL WISCONSIN
  
CITY           SKY/WX    TMP DP  RH WIND       PRES   REMARKS
EPHRAIM        NOT AVBL                                               
WASHINGTON ISL CLOUDY    50  17  27 S6        30.06F                  
STURGEON BAY   FAIR      52  26  36 SE9       30.05F                  
MANITOWOC      CLOUDY    46  31  55 SE7       30.05F                  
SHEBOYGAN      PTSUNNY   56  34  43 SE9       30.03F                  
$$


SKY/WX - Weather  TMP - Temperature  DP - Dew Point  RH - Relative Humidity
WIND - Wind Direction/Speed PRES - Barometric Pressure VSB - Visibility
WCI - Wind Chill Index E13G22 Wind - East Wind 13 mph/Gusts of 22 mph
Sheboygan Weather Map
UTC Time: 4/3/2020, 20:02
Your Time: